Weather in Valdez

United States     61°07′49″N   146°21′21″W
temp.,
°C
wind,
m/s
gust,
m/s
humid.,
%
clouds,
%
prec.,
mm/h
press.,
hPa
HPBL,
m
24 may, tue
tue2401:00−1wsw129895 0.3 1017323
04:000sw23100100 1.1 1016216
07:00−1sw229899 0.4 1016193
10:00−1sw229891 0.8 1017176
13:000ssw229487 0.1 1016325
16:00+1sw229176 0.3 1016436
19:00+1sw228757 0.1 1015411
22:000wnw119285 0.2 101697
25 may, wed
wed2501:00−1nne229048 0.3 101617
04:00−1n338924 0.3 101624
07:00+1nne338640 0.0 1015117
10:00+3ne228025 0.0 1014370
13:00+4nne227028 0.0 1014766
16:00+6nnw126360 0.1 1013952
19:00+6n126231 0.1 1013810
22:00+4n117044 0.1 101432
26 may, thu
thu2601:00+3nne437027 0.0 101424
04:00+3nne447844 0.0 101434
07:00+4nne557931 0.0 1013113
10:00+6nne457098 0.0 1012619
13:00+7nne456887 0.0 1011853
16:00+8nne346682 0.0 1010839
19:00+8nne336599 0.0 1010670
22:00+7nne447092 0.1 101073
27 may, fri
fri2701:00+5nne567592 0.0 101170
04:00+5nne557634 0.0 101155
07:00+5nne66775 0.0 1011131
10:00+8nne56675 0.0 1010500
13:00+9nne455810 0.0 10101090
16:00+10nne345557 0.0 10101279
19:00+11n335115 0.0 10101095
22:00+9nne336055 0.0 101143
28 may, sat
sat2801:00+6n567740 0.1 1014104
04:00+6nne557320 0.1 101440
07:00+7nne44665 0.0 101446
10:00+9nne11635 0.0 1013384
13:00+10n225212 0.0 10131132
16:00+10nw214826 0.0 10121341
19:00+10nw125026 0.0 1013748
22:00+8nw115339 0.0 101396